Regional Weather Roundup
Issued by NWS

Home | Current Version | Previous Version | Text Only | Print | Product List | Glossary Off
Versions: 1 2 3 4 5 6 7 8 9 10 11 12 13 14 15 16 17 18 19 20 21 22 23 24 25 26 27 28 29 30 31 32 33 34 35 36 37 38 39 40 41 42 43 44 45 46 47 48 49 50

000
ASUS43 KLOT 160203
RWRIL

ILLINOIS REGIONAL WEATHER ROUNDUP
NATIONAL WEATHER SERVICE CHICAGO/ROMEOVILLE IL
800 PM CST FRI DEC 15 2017

NOTE: "FAIR" INDICATES FEW OR NO CLOUDS BELOW 12,000 FEET WITH NO
SIGNIFICANT WEATHER AND/OR OBSTRUCTIONS TO VISIBILITY.

* THESE STATIONS ARE NOT UNDER NWS QUALITY CONTROL. THEY ALSO MAY NOT
  REPORT WEATHER SUCH AS PRECIPITATION OR FOG.

ILZ001-002-007-009-015-016-024-160300-
NORTHWEST ILLINOIS

CITY           SKY/WX    TMP DP  RH WIND       PRES   REMARKS
MOLINE         CLOUDY    35  21  56 SW10      29.90S WCI  27
STERLING*      CLOUDY    34  22  61 VRB6      29.90S WCI  29
SAVANNA*       CLOUDY    34  25  68 S8        29.88S WCI  28
$$

ILZ003-004-008-010-011-017-018-160300-
NORTH CENTRAL ILLINOIS

CITY           SKY/WX    TMP DP  RH WIND       PRES   REMARKS
ROCKFORD       CLOUDY    33  24  69 SW8       29.90S WCI  26
FREEPORT*      CLOUDY    32  25  76 S9        29.89S WCI  24
ROCHELLE*      CLOUDY    32  24  71 SW9       29.90S WCI  25
DE KALB*       CLOUDY    33  24  69 SW10      29.89S WCI  25
PERU*          CLOUDY    34  21  59 SW13      29.93S WCI  25
$$

ILZ005-006-012>014-019>023-160300-
NORTHEAST ILLINOIS

CITY           SKY/WX    TMP DP  RH WIND       PRES   REMARKS
CHICAGO-OHARE  CLOUDY    34  22  61 SW7       29.90S WCI  28
CHICAGO-MIDWAY CLOUDY    35  22  58 SW10      29.92S WCI  27
AURORA         CLOUDY    34  22  61 SW9       29.91S WCI  27
LANSING*       CLOUDY    33  23  66 SW10      29.94S WCI  25
JOLIET*        CLOUDY    36  22  57 SW8G17    29.93S WCI  30
WAUKEGAN       CLOUDY    32  25  75 SW8       29.88S WCI  25
DUPAGE AIRPORT CLOUDY    33  23  66 SW9       29.90S WCI  25
KANKAKEE*      CLOUDY    34  20  57 SW12      29.96S WCI  25
WHEELING       CLOUDY    34  24  67 SW8       29.91F WCI  27
MORRIS*        CLOUDY    35  22  58 SW10      29.92F WCI  27
ROMEOVILLE*    CLOUDY    34  22  62 SW9       29.92S WCI  26
NORTHERLY ISL    N/A     35  20  54 S1          N/A
$$

LMZ740>746-160300-
SOUTHERN LAKE MICHIGAN

STATION/POSITION SKY/WX   TEMP    WIND        PRES    VSBY  WAVE
                          AIR SEA DIR/SP/G                  HT/PER
                          (F)     (DEG/KT/KT) (MB)    (MI)  (FT/S)
HARRISON CRIB              36     240/ 14/ 16   N/A
BURNHAM HARBOR             35     260/  5/ 10   N/A
CALUMET HARBOR             34     210/  9/ 13 1012.8S
BURNS HARBOR               34     230/ 12/ 18 1014.2R
MICHIGAN CITY              33     210/ 17/ 18   N/A
$$

ILZ025>027-034>036-040-047-049-050-058-095>099-160300-
WEST-CENTRAL ILLINOIS

CITY           SKY/WX    TMP DP  RH WIND       PRES   REMARKS
QUINCY         CLOUDY    35  20  54 SW14      29.97F WCI  26
GALESBURG*     CLOUDY    32  23  69 S10       29.95R WCI  24
MACOMB*        CLOUDY    35  21  56 SW13      29.98S WCI  27
JACKSONVILLE*  CLEAR     34  19  53 S9        30.01S WCI  26
PITTSFIELD*    PTCLDY    36  21  54 S7        30.00F WCI  31
$$

ILZ028>032-037-038-041>044-048-051>054-059>061-160300-
CENTRAL ILLINOIS

CITY           SKY/WX    TMP DP  RH WIND       PRES   REMARKS
PONTIAC        CLOUDY    36  22  56 SW15      29.97S WCI  26
BLOOMINGTON    PTCLDY    29  21  72 S12       29.98S WCI  19
DECATUR        CLEAR     32  21  64 SW13      30.02S WCI  22
PEORIA         CLEAR     33  21  61 SW10      29.97S WCI  25
LACON*         CLEAR     32  21  64 SW7       29.94F WCI  26
LINCOLN*       CLOUDY    33  22  65 S5        30.00S WCI  28
SPRINGFIELD    CLEAR     35  21  56 SW10      30.02S WCI  27
TAYLORVILLE    CLEAR     31  20  63 S9        30.03F WCI  22
$$

ILZ033-039-045-046-055>057-062-063-160300-
EAST-CENTRAL ILLINOIS

CITY           SKY/WX    TMP DP  RH WIND       PRES   REMARKS
CHAMPAIGN      PTCLDY    30  20  66 S9        30.01S WCI  22
DANVILLE*      CLOUDY    33  21  62 SW10      29.99R WCI  24
RANTOUL*       CLOUDY    35  23  62 SW12      30.00R WCI  26
MATTOON        CLEAR     33  24  69 S8        30.03F WCI  26
PARIS*         CLOUDY    33  24  68 SW9       30.05S WCI  26
$$

ILZ079-100>102-160300-
SOUTHWEST ILLINOIS

CITY           SKY/WX    TMP DP  RH WIND       PRES   REMARKS
ALTON          CLEAR     34  23  64 SW7       30.07R WCI  28
BELLEVILLE     CLEAR     31  21  65 CALM      30.07S
CAHOKIA*       CLEAR     33  20  58 S3        30.08R
SPARTA*        CLEAR     33  25  71 CALM      30.09F
$$

ILZ064>066-069>071-074>076-080>082-084>086-088>090-092>094-160300-
SOUTH-CENTRAL ILLINOIS

CITY           SKY/WX    TMP DP  RH WIND       PRES   REMARKS
CARBONDALE     CLEAR     30  25  81 SE5       30.10S WCI  25
CAIRO*         CLEAR     39  30  68 S9        30.13R WCI  33
EFFINGHAM*     CLEAR     33  24  70 S5        30.08F WCI  28
MARION         CLEAR     31  26  79 CALM      30.11F
MT. VERNON     CLEAR     26  23  88 CALM      30.10F
CENTRALIA*     CLEAR     30  25  82 S7        30.08S WCI  23
SALEM*         CLEAR     32  24  71 S5        30.08S WCI  27
METROPOLIS*    CLEAR     38  27  65 S3        30.13R
$$

ILZ067-068-072-073-078-083-087-091-160300-
SOUTHEAST ILLINOIS

CITY           SKY/WX    TMP DP  RH WIND       PRES   REMARKS
LAWRENCEVILLE  CLEAR     28  22  78 S8        30.10S WCI  20
FLORA*         PTCLDY    32  26  78 S6        30.10R WCI  26
FAIRFIELD*     CLEAR     30  25  80 CALM      30.09F
HARRISBURG*    PTCLDY    34  28  77 CALM      30.11F
ROBINSON*      CLOUDY    32  25  74 SW10      30.09S WCI  24
CARMI*         CLOUDY    35  29  80 S5        30.11F WCI  31
$$

ABBREVIATIONS USED IN REMARKS
   TC - TEMPERATURE IN CELSIUS
  WCI - WIND CHILL INDEX
   HX - HEAT INDEX
  VSB - VISIBILITY
$$





USA.gov is the U.S. government's official web portal to all federal, state and local government web resources and services.